Show Low, AZ

2:17 AM MST on July 25, 2017 (GMT -0700)
Show Low Municipal

Weather History for KSOW - February, 2014

Change the Weather History Date:

Wednesday, February 12, 2014

  Actual Average Record
Temperature  
Mean Temperature 38 °F -  
Max Temperature 57 °F 47 °F 64 °F (2016)
Min Temperature 19 °F 28 °F 1 °F (2013)
Degree Days  
Heating Degree Days 27    
Moisture  
Dew Point 12 °F    
Average Humidity 37    
Maximum Humidity 63    
Minimum Humidity 16    
Precipitation  
Precipitation 0.00 in - - ()
Sea Level Pressure  
Sea Level Pressure 30.24 in    
Wind  
Wind Speed 2 mph (NE)    
Max Wind Speed 12 mph    
Max Gust Speed 16 mph    
Visibility 10 miles    
Events      
Averages and records for this station are not official NWS values.
T = Trace of Precipitation, MM = Missing Value Source: NWS Daily Summary

Daily Weather History Graph

Daily Weather History Graph

Search for Another Location

Airport or City:

Trip Planner

Search our weather history database for the weather conditions in past years. The results will help you decide how hot, cold, wet, or windy it might be!

Date:

Astronomy

Feb. 12, 2014 Rise Set
Actual Time 7:07 AM MST 6:00 PM MST
Civil Twilight 6:42 AM MST 6:26 PM MST
Nautical Twilight 6:12 AM MST 6:56 PM MST
Astronomical Twilight 5:43 AM MST 7:25 PM MST
Moon 4:19 PM MST (2/12) 5:24 AM MST (2/12)
Length of Visible Light 11h 44m
Length of Day
10h 53m
Waxing Gibbous, 96% of the Moon is Illuminated
Feb 12
Waxing Gibbous
Feb 14
Full
Feb 22
Last Quarter
Mar 1
New
Mar 8
First Quarter

Hourly Weather History & Observations

Time (MST) Temp. Windchill Dew Point Humidity Pressure Visibility Wind Dir Wind Speed Gust Speed Precip Events Conditions
12:15 AM 28.4 °F - 6.8 °F 40% 30.23 in 10.0 mi Calm Calm - N/A   Clear
12:35 AM 24.8 °F - 6.8 °F 46% 30.23 in 10.0 mi Calm Calm - N/A   Clear
12:55 AM 24.8 °F - 6.8 °F 46% 30.22 in 10.0 mi Calm Calm - N/A   Clear
1:15 AM 26.6 °F - 6.8 °F 43% 30.23 in 10.0 mi Calm Calm - N/A   Clear
1:35 AM 26.6 °F 22.6 °F 6.8 °F 43% 30.23 in 10.0 mi South 3.5 mph - N/A   Clear
1:55 AM 24.8 °F 19.1 °F 6.8 °F 46% 30.23 in 10.0 mi SSE 4.6 mph - N/A   Clear
2:15 AM 24.8 °F 20.5 °F 6.8 °F 46% 30.24 in 10.0 mi SE 3.5 mph - N/A   Clear
2:35 AM 24.8 °F 20.5 °F 6.8 °F 46% 30.23 in 10.0 mi ENE 3.5 mph - N/A   Clear
2:55 AM 23.0 °F 18.4 °F 6.8 °F 50% 30.23 in 10.0 mi East 3.5 mph - N/A   Clear
3:15 AM 21.2 °F - 6.8 °F 54% 30.23 in 10.0 mi Calm Calm - N/A   Clear
3:35 AM 24.8 °F - 6.8 °F 46% 30.23 in 10.0 mi Calm Calm - N/A   Clear
3:55 AM 23.0 °F - 6.8 °F 50% 30.23 in 10.0 mi Calm Calm - N/A   Clear
4:15 AM 23.0 °F - 6.8 °F 50% 30.24 in 10.0 mi Calm Calm - N/A   Clear
4:35 AM 23.0 °F - 6.8 °F 50% 30.25 in 10.0 mi Calm Calm - N/A   Clear
4:55 AM 23.0 °F 18.4 °F 6.8 °F 50% 30.25 in 10.0 mi East 3.5 mph - N/A   Clear
5:15 AM 24.8 °F 19.1 °F 8.6 °F 50% 30.25 in 10.0 mi East 4.6 mph - N/A   Clear
5:35 AM 23.0 °F 17.0 °F 6.8 °F 50% 30.25 in 10.0 mi East 4.6 mph - N/A   Clear
5:55 AM 19.4 °F 14.3 °F 6.8 °F 58% 30.25 in 10.0 mi ENE 3.5 mph - N/A   Clear
6:15 AM 19.4 °F - 6.8 °F 58% 30.25 in 10.0 mi Calm Calm - N/A   Clear
6:35 AM 19.4 °F - 8.6 °F 63% 30.25 in 10.0 mi Calm Calm - N/A   Clear
6:55 AM 21.2 °F 16.4 °F 8.6 °F 58% 30.26 in 10.0 mi WSW 3.5 mph - N/A   Clear
7:15 AM 24.8 °F - 10.4 °F 54% 30.27 in 10.0 mi Calm Calm - N/A   Clear
7:35 AM 24.8 °F - 10.4 °F 54% 30.27 in 10.0 mi Calm Calm - N/A   Clear
7:55 AM 26.6 °F - 10.4 °F 51% 30.28 in 10.0 mi Calm Calm - N/A   Clear
8:15 AM 32.0 °F - 10.4 °F 41% 30.29 in 10.0 mi Calm Calm - N/A   Clear
8:35 AM 32.0 °F - 12.2 °F 44% 30.30 in 10.0 mi Calm Calm - N/A   Clear
8:55 AM 35.6 °F - 14.0 °F 41% 30.30 in 10.0 mi Calm Calm - N/A   Clear
9:15 AM 37.4 °F - 14.0 °F 38% 30.31 in 10.0 mi Calm Calm - N/A   Clear
9:35 AM 39.2 °F 37.0 °F 14.0 °F 36% 30.30 in 10.0 mi SW 3.5 mph - N/A   Clear
9:55 AM 41.0 °F - 15.8 °F 36% 30.29 in 10.0 mi Calm Calm - N/A   Clear
10:15 AM 44.6 °F 43.1 °F 15.8 °F 31% 30.29 in 10.0 mi NNE 3.5 mph - N/A   Clear
10:35 AM 46.4 °F 43.5 °F 14.0 °F 27% 30.30 in 10.0 mi NE 5.8 mph - N/A   Clear
10:55 AM 46.4 °F 43.5 °F 14.0 °F 27% 30.30 in 10.0 mi North 5.8 mph - N/A   Clear
11:15 AM 48.2 °F - 14.0 °F 25% 30.29 in 10.0 mi North 4.6 mph - N/A   Clear
11:35 AM 48.2 °F - 12.2 °F 24% 30.29 in 10.0 mi North 8.1 mph - N/A   Clear
11:55 AM 50.0 °F - 10.4 °F 20% 30.29 in 10.0 mi North 8.1 mph - N/A   Clear
12:15 PM 50.0 °F - 6.8 °F 17% 30.28 in 10.0 mi NNW 4.6 mph - N/A   Clear
12:35 PM 50.0 °F - 8.6 °F 19% 30.26 in 10.0 mi Calm Calm - N/A   Clear
12:55 PM 50.0 °F - 8.6 °F 19% 30.24 in 10.0 mi Calm Calm - N/A   Clear
1:15 PM 53.6 °F - 10.4 °F 18% 30.24 in 10.0 mi Calm Calm - N/A   Clear
1:35 PM 53.6 °F - 8.6 °F 16% 30.22 in 10.0 mi NNW 6.9 mph - N/A   Clear
1:55 PM 53.6 °F - 8.6 °F 16% 30.21 in 10.0 mi WNW 4.6 mph - N/A   Clear
2:15 PM 53.6 °F - 10.4 °F 18% 30.21 in 10.0 mi Calm Calm - N/A   Clear
2:35 PM 55.4 °F - 12.2 °F 18% 30.19 in 10.0 mi West 5.8 mph - N/A   Clear
2:55 PM 55.4 °F - 12.2 °F 18% 30.18 in 10.0 mi Calm Calm - N/A   Clear
3:15 PM 57.2 °F - 15.8 °F 20% 30.18 in 10.0 mi NW 5.8 mph - N/A   Clear
3:35 PM 57.2 °F - 15.8 °F 20% 30.18 in 10.0 mi NW 9.2 mph - N/A   Clear
3:55 PM 57.2 °F - 15.8 °F 20% 30.19 in 10.0 mi WNW 9.2 mph - N/A   Clear
4:15 PM 57.2 °F - 15.8 °F 20% 30.19 in 10.0 mi NW 11.5 mph - N/A   Clear
4:35 PM 55.4 °F - 17.6 °F 23% 30.20 in 10.0 mi NNW 8.1 mph 16.1 mph N/A   Clear
4:55 PM 55.4 °F - 17.6 °F 23% 30.20 in 10.0 mi NNW 10.4 mph 16.1 mph N/A   Clear
5:15 PM 55.4 °F - 17.6 °F 23% 30.21 in 10.0 mi North 6.9 mph - N/A   Clear
5:35 PM 53.6 °F - 17.6 °F 24% 30.21 in 10.0 mi NNW 8.1 mph - N/A   Clear
5:55 PM 51.8 °F - 17.6 °F 26% 30.22 in 10.0 mi North 4.6 mph - N/A   Clear
6:15 PM 50.0 °F - 17.6 °F 28% 30.21 in 10.0 mi Calm Calm - N/A   Clear
6:35 PM 50.0 °F - 17.6 °F 28% 30.21 in 10.0 mi Calm Calm - N/A   Clear
6:55 PM 44.6 °F - 15.8 °F 31% 30.22 in 10.0 mi Calm Calm - N/A   Clear
7:15 PM 42.8 °F - 15.8 °F 34% 30.22 in 10.0 mi Calm Calm - N/A   Clear
7:35 PM 41.0 °F - 15.8 °F 36% 30.22 in 10.0 mi Calm Calm - N/A   Clear
7:55 PM 41.0 °F 38.0 °F 15.8 °F 36% 30.22 in 10.0 mi South 4.6 mph - N/A   Clear
8:15 PM 39.2 °F 35.0 °F 15.8 °F 39% 30.23 in 10.0 mi South 5.8 mph - N/A   Clear
8:35 PM 37.4 °F 32.8 °F 15.8 °F 41% 30.22 in 10.0 mi SSE 5.8 mph - N/A   Clear
8:55 PM 37.4 °F 34.9 °F 15.8 °F 41% 30.22 in 10.0 mi SE 3.5 mph - N/A   Clear
9:15 PM 37.4 °F - 15.8 °F 41% 30.23 in 10.0 mi Calm Calm - N/A   Clear
9:35 PM 35.6 °F 31.7 °F 15.8 °F 44% 30.23 in 10.0 mi South 4.6 mph - N/A   Clear
9:55 PM 35.6 °F 30.7 °F 15.8 °F 44% 30.23 in 10.0 mi SSE 5.8 mph - N/A   Clear
10:15 PM 35.6 °F 31.7 °F 15.8 °F 44% 30.24 in 10.0 mi South 4.6 mph - N/A   Clear
10:35 PM 35.6 °F 32.8 °F 15.8 °F 44% 30.24 in 10.0 mi SE 3.5 mph - N/A   Clear
10:55 PM 33.8 °F - 15.8 °F 48% 30.25 in 10.0 mi Calm Calm - N/A   Clear
11:15 PM 32.0 °F 28.7 °F 15.8 °F 51% 30.24 in 10.0 mi SE 3.5 mph - N/A   Clear
11:35 PM 32.0 °F 27.5 °F 14.0 °F 48% 30.24 in 10.0 mi SSE 4.6 mph - N/A   Clear
11:55 PM 32.0 °F 26.4 °F 14.0 °F 48% 30.23 in 10.0 mi South 5.8 mph - N/A   Clear